Location: 22
(39.7117°N, 89.5929°W)
Time: 08:43:44
(UTC-05:00)

S-56A Canister/Altair - Pass Details

Date: 14 February 2023
Orbit: 638 x 2493 km, 38.9° (Epoch: 25 March)

Event Time Altitude Azimuth Distance (km) Brightness Sun altitude
Rises 11:48:30 0° 279° (W) 2,936 10.4 37.1°
Reaches altitude 10° 11:50:49 10° 272° (W) 2,025 9.7 37.1°
Maximum altitude 11:55:03 42° 201° (SSW) 965 9.7 37.2°
Drops below altitude 10° 12:00:02 10° 130° (SE) 2,386 10.7 37.3°
Sets 12:02:59 0° 124° (SE) 3,536 11.4 37.3°
